sat.trackr.live / text

‹ back to catalog

ASIASTAR

NORAD 26107 · 2000-016A

PAYLOAD ACTIVE UNKNOWN

§ Identity

Operator
Country
US
Launch date
2000-03-21
Launch site
FRGUI
Launch vehicle
Mass (kg)
RCS (m²)
25.12

Purposes: comms

External: N2YO · Heavens-Above · Gunter

§ Orbital elements

Epoch: 2026-09-19T21:26:53.926944Z

Period
1,436.08 min
Inclination
9.3459°
Eccentricity
0.0003891
Mean motion
1.00272998 rev/d
Perigee alt
35,769.8 km
Apogee alt
35,802.7 km
Semi-major
42,164.4 km
B*
0.0000e+0
RAAN
57.1109°
Arg perigee
123.0568°
Mean anomaly
245.3827°
Rev number
9,687

§ Raw data

ASIASTAR1 26107U 00016A   26262.89367971 -.00000335  00000+0  00000+0 0  99912 26107   9.3459  57.1109 0003891 123.0568 245.3827  1.00272998 96876

JSON: /api/v1/satellites/26107 · /tle

For live sub-satellite position, see the globe view (requires WebGL).

§ Visibility from observer

Set your observer location to see the next 7 days of passes ≥ 10°. The values pass through the URL so the page stays shareable.

No JS? Fill the form by hand. The geolocation button needs JavaScript.